Regional Weather Roundup
Issued by NWS

Home | Current Version | Previous Version | Graphics & Text | Print | Product List | Glossary On
Versions: 1 2 3 4 5 6 7 8 9 10 11 12 13 14 15 16 17 18 19 20 21 22 23 24 25 26 27 28 29 30 31 32 33 34 35 36 37 38 39 40 41 42 43 44 45 46 47 48 49 50
000
ASUS43 KLOT 301503
RWRIL

ILLINOIS REGIONAL WEATHER ROUNDUP
NATIONAL WEATHER SERVICE CHICAGO/ROMEOVILLE IL
1000 AM CDT SUN APR 30 2017

NOTE: "FAIR" INDICATES FEW OR NO CLOUDS BELOW 12,000 FEET WITH NO
SIGNIFICANT WEATHER AND/OR OBSTRUCTIONS TO VISIBILITY.

* THESE STATIONS ARE NOT UNDER NWS QUALITY CONTROL. THEY ALSO MAY NOT
  REPORT WEATHER SUCH AS PRECIPITATION OR FOG.

ILZ001-002-007-009-015-016-024-301600-
NORTHWEST ILLINOIS

CITY           SKY/WX    TMP DP  RH WIND       PRES   REMARKS
MOLINE         CLOUDY    44  41  89 E14       29.83R FOG
STERLING*      LGT RAIN  44  42  93 NE7       29.86R
SAVANNA*       CLOUDY    43  40  91 NE10      29.87R
$$

ILZ003-004-008-010-011-017-018-301600-
NORTH CENTRAL ILLINOIS

CITY           SKY/WX    TMP DP  RH WIND       PRES   REMARKS
ROCKFORD       CLOUDY    44  40  85 NE14G22   29.87R
FREEPORT*      CLOUDY    41  40  96 NE13G20   29.86S
ROCHELLE*      DRIZZLE   42  41  96 NE14      29.84R
DE KALB*       CLOUDY    43  42  97 NE14      29.83R
PERU*          CLOUDY    44  42  95 NE10      29.82R FOG
$$

ILZ005-006-012>014-019>023-301600-
NORTHEAST ILLINOIS

CITY           SKY/WX    TMP DP  RH WIND       PRES   REMARKS
CHICAGO-OHARE  LGT RAIN  45  43  93 NE9       29.79S FOG
CHICAGO-MIDWAY CLOUDY    46  46 100 NE13G23   29.78R FOG
AURORA         CLOUDY    45  43  93 NE10G20   29.81R
LANSING*       LGT RAIN  48  48 100 E3        29.76F
JOLIET*        LGT RAIN  48  47  97 N7        29.78R
WAUKEGAN       LGT RAIN  42  42 100 NE13G26   29.82S FOG
DUPAGE AIRPORT LGT RAIN  44  44 100 NE10G20   29.81R FOG
KANKAKEE*      CLOUDY    51  51  98 CALM      29.77R
WHEELING       LGT RAIN  43  43 100 NE9       29.82R
MORRIS*        CLOUDY    47  45  95 N6        29.79R
NORTHERLY ISL    N/A     45  43  93 NE12        N/A
$$

LMZ740>746-301600-
SOUTHERN LAKE MICHIGAN

STATION/POSITION SKY/WX   TEMP    WIND        PRES    VSBY  WAVE
                          AIR SEA DIR/SP/G                  HT/PER
                          (F)     (DEG/KT/KT) (MB)    (MI)  (FT/S)
SOUTHERN BUOY              41 40   50/ 17/ 19 1011.9          4/ 5
HARRISON CRIB              44      70/ 17/ 19   N/A
BURNHAM HARBOR             45      40/  9/ 19   N/A
CALUMET HARBOR             46      60/ 14/ 16 1007.8F
BURNS HARBOR               48     100/  6/  9 1008.5F
MICHIGAN CITY              47      80/ 13/ 15   N/A
MICHIGAN CITY 6N           47 48                N/A           3/ 6
ST. JOSEPH                 47 46  120/ 17/ 25 1009.4F         2/ 5
$$

ILZ025>027-034>036-040-047-049-050-058-095>099-301600-
WEST-CENTRAL ILLINOIS

CITY           SKY/WX    TMP DP  RH WIND       PRES   REMARKS
QUINCY         CLOUDY    49  48  97 NE12      29.74R FOG
GALESBURG*     CLOUDY    44  44  99 NE10      29.79S FOG
MACOMB*        CLOUDY    47  47 100 NE10      29.80R FOG
JACKSONVILLE*  CLOUDY    51  51  99 N8        29.75R FOG
PITTSFIELD*    LGT RAIN  49  49 100 CALM      29.78R VSB 1/4
$$

ILZ028>032-037-038-041>044-048-051>054-059>061-301600-
CENTRAL ILLINOIS

CITY           SKY/WX    TMP DP  RH WIND       PRES   REMARKS
PONTIAC        CLOUDY    54  54  99 E12       29.77R
BLOOMINGTON    CLOUDY    58  57  97 SE8       29.75R
DECATUR        CLOUDY    59  59 100 SE8       29.73R
PEORIA         LGT RAIN  48  48 100 N5        29.78R VSB 3/4
LACON*         CLOUDY    46  45  99 N3        29.81R FOG
LINCOLN*       CLOUDY    59  59 100 S3        29.74R
SPRINGFIELD    CLOUDY    58  56  93 SE7       29.74R
TAYLORVILLE    LGT RAIN  58  58  99 S12G17    29.73S
$$

ILZ033-039-045-046-055>057-062-063-301600-
EAST-CENTRAL ILLINOIS

CITY           SKY/WX    TMP DP  RH WIND       PRES   REMARKS
CHAMPAIGN      CLOUDY    61  59  93 E8        29.73F
RANTOUL*       CLOUDY    58  58  97 E8        29.74R
MATTOON        LGT RAIN  62  61  96 S12G23    29.76R
$$

ILZ079-100>102-301600-
SOUTHWEST ILLINOIS

CITY           SKY/WX    TMP DP  RH WIND       PRES   REMARKS
ALTON          RAIN      61  59  94 SE13      29.75S
BELLEVILLE     RAIN      60  60 100 SE9       29.75F FOG
CAHOKIA*       RAIN      62  59  90 SE9       29.75F FOG
$$

ILZ064>066-069>071-074>076-080>082-084>086-088>090-092>094-301600-
SOUTH-CENTRAL ILLINOIS

CITY           SKY/WX    TMP DP  RH WIND       PRES   REMARKS
CARBONDALE     LGT RAIN  64  64 100 SE8       29.80F
CAIRO*         RAIN      64  64 100 E9        29.82F
EFFINGHAM*     LGT RAIN  62  62 100 SE10      29.81S
MARION         HVY RAIN  64  64 100 SE9       29.83R
MT. VERNON     RAIN      63  63 100 S6        29.84R
CENTRALIA*     RAIN      63  63 100 SE8       29.81R
SALEM*         HVY RAIN  64  62  94 S9        29.81R
METROPOLIS*    RAIN      64  64  97 N3        29.83S
$$

ILZ067-068-072-073-078-083-087-091-301600-
SOUTHEAST ILLINOIS

CITY           SKY/WX    TMP DP  RH WIND       PRES   REMARKS
LAWRENCEVILLE  RAIN      66  65  96 S13       29.84F FOG
FLORA*         RAIN      65  64  97 SE9       29.81F
FAIRFIELD*     CLOUDY    64  64 100 S7        29.84R
HARRISBURG*    TSTM      65  65 100 SE6       29.84R
ROBINSON*      RAIN      64  63  97 S12       29.85R
CARMI*         TSTM      64  64 100 SE10      29.82F
$$

ABBREVIATIONS USED IN REMARKS
   TC - TEMPERATURE IN CELSIUS
  WCI - WIND CHILL INDEX
   HX - HEAT INDEX
  VSB - VISIBILITY
$$




USA.gov is the U.S. government's official web portal to all federal, state and local government web resources and services.